When you browse on this site, cookies collect data to enhance your experience and personalize the content and advertising you see.
Visit our Privacy Policy to learn more. By continuing to use the site, you agree to this use of cookies and data.
  • In Hungary
  • List of Countries
  • For 7 days
  • Water Temperature
  • Satellite Maps
  • Weather Map
  • News
  • Weather Widgets
  • user-avatar
    Login

    Hourly Weather Loja

    Today, 23 January, Wednesday

    Time Temperature Precipitation Wind Pressure Humidity
    00:00 +5°C° 0.6 mm 4 mps 708 mmHg 96%
    01:00 +5°C° 0.3 mm 4 mps 708 mmHg 96%
    02:00 +5°C° 0.3 mm 4 mps 708 mmHg 96%
    03:00 +6°C° 0.3 mm 4 mps 707 mmHg 96%
    04:00 +5°C° 0.1 mm 4 mps 707 mmHg 96%
    05:00 +5°C° 0.1 mm 4 mps 707 mmHg 95%
    06:00 +5°C° 0.1 mm 3 mps 707 mmHg 95%
    07:00 +5°C° 0.1 mm 3 mps 707 mmHg 93%
    08:00 +5°C° 0.1 mm 3 mps 708 mmHg 92%
    09:00 +5°C° 0.1 mm 3 mps 708 mmHg 91%
    10:00 +5°C° 0.1 mm 3 mps 708 mmHg 91%
    11:00 +6°C° 0.1 mm 4 mps 707 mmHg 91%
    12:00 +6°C° 0.1 mm 4 mps 707 mmHg 91%
    13:00 +6°C° 0.3 mm 4 mps 707 mmHg 91%
    14:00 +7°C° 0.3 mm 4 mps 706 mmHg 92%
    15:00 +8°C° 0.3 mm 3 mps 706 mmHg 93%
    16:00 +8°C° 0.3 mm 3 mps 706 mmHg 93%
    17:00 +8°C° 0.3 mm 3 mps 706 mmHg 94%
    18:00 +8°C° 0.3 mm 3 mps 706 mmHg 94%
    19:00 +8°C° 0.2 mm 3 mps 706 mmHg 95%
    20:00 +8°C° 0.2 mm 3 mps 706 mmHg 95%
    21:00 +8°C° 0.2 mm 3 mps 706 mmHg 95%
    22:00 +8°C° 0 mm 3 mps 707 mmHg 96%
    23:00 +7°C° 0 mm 2 mps 707 mmHg 96%

    Tomorrow, 24 January, Thursday

    Time Temperature Precipitation Wind Pressure Humidity
    00:00 +7°C° 0 mm 2 mps 707 mmHg 96%
    01:00 +7°C° 0 mm 2 mps 707 mmHg 96%
    02:00 +7°C° 0 mm 2 mps 707 mmHg 96%
    03:00 +7°C° 0 mm 2 mps 707 mmHg 96%
    04:00 +7°C° 0 mm 2 mps 706 mmHg 96%
    05:00 +7°C° 0 mm 2 mps 706 mmHg 95%
    06:00 +7°C° 0 mm 2 mps 706 mmHg 95%
    07:00 +7°C° 0 mm 2 mps 706 mmHg 93%
    08:00 +7°C° 0 mm 2 mps 707 mmHg 92%
    09:00 +8°C° 0 mm 2 mps 707 mmHg 90%
    10:00 +9°C° 0 mm 2 mps 707 mmHg 85%
    11:00 +9°C° 0 mm 2 mps 707 mmHg 81%
    12:00 +10°C° 0 mm 2 mps 707 mmHg 76%
    13:00 +12°C° 0 mm 2 mps 707 mmHg 75%
    14:00 +11°C° 0 mm 3 mps 707 mmHg 73%
    15:00 +11°C° 0 mm 3 mps 707 mmHg 71%
    16:00 +10°C° 0 mm 2 mps 707 mmHg 77%
    17:00 +9°C° 0 mm 2 mps 707 mmHg 83%
    18:00 +9°C° 0 mm 1 mps 707 mmHg 89%
    19:00 +9°C° 0 mm 1 mps 707 mmHg 89%
    20:00 +9°C° 0 mm 1 mps 707 mmHg 88%
    21:00 +9°C° 0 mm 1 mps 708 mmHg 87%
    22:00 +9°C° 0 mm 1 mps 708 mmHg 88%
    23:00 +9°C° 0 mm 1 mps 708 mmHg 88%

    Day after tomorrow, 25 January, Friday

    Time Temperature Precipitation Wind Pressure Humidity
    00:00 +8°C° 0 mm 1 mps 708 mmHg 89%
    01:00 +8°C° 0 mm 1 mps 708 mmHg 88%
    02:00 +7°C° 0 mm 2 mps 708 mmHg 88%
    03:00 +7°C° 0 mm 2 mps 708 mmHg 88%
    04:00 +7°C° 0 mm 2 mps 708 mmHg 88%
    05:00 +7°C° 0 mm 2 mps 708 mmHg 88%
    06:00 +6°C° 0 mm 2 mps 708 mmHg 88%
    07:00 +7°C° 0 mm 2 mps 709 mmHg 84%
    08:00 +8°C° 0 mm 2 mps 709 mmHg 81%
    09:00 +9°C° 0 mm 3 mps 710 mmHg 78%
    10:00 +11°C° 0 mm 3 mps 710 mmHg 68%
    11:00 +12°C° 0 mm 3 mps 711 mmHg 58%
    12:00 +14°C° 0 mm 4 mps 711 mmHg 49%
    13:00 +14°C° 0 mm 4 mps 711 mmHg 47%
    14:00 +14°C° 0 mm 4 mps 710 mmHg 46%
    15:00 +14°C° 0 mm 4 mps 710 mmHg 45%
    16:00 +13°C° 0 mm 3 mps 710 mmHg 51%
    17:00 +11°C° 0 mm 3 mps 710 mmHg 57%
    18:00 +9°C° 0 mm 2 mps 709 mmHg 64%
    19:00 +9°C° 0 mm 2 mps 710 mmHg 66%
    20:00 +8°C° 0 mm 2 mps 710 mmHg 68%
    21:00 +8°C° 0 mm 2 mps 711 mmHg 71%
    22:00 +7°C° 0 mm 2 mps 711 mmHg 71%
    23:00 +7°C° 0 mm 2 mps 711 mmHg 72%

    26 January, Saturday

    Time Temperature Precipitation Wind Pressure Humidity
    00:00 +7°C° 0 mm 2 mps 711 mmHg 72%
    01:00 +7°C° 0 mm 2 mps 710 mmHg 73%
    02:00 +6°C° 0 mm 2 mps 710 mmHg 73%
    03:00 +6°C° 0 mm 2 mps 710 mmHg 74%
    04:00 +6°C° 0 mm 2 mps 710 mmHg 73%
    05:00 +6°C° 0 mm 2 mps 710 mmHg 72%
    06:00 +6°C° 0 mm 2 mps 710 mmHg 71%
    07:00 +7°C° 0 mm 2 mps 710 mmHg 67%
    08:00 +8°C° 0 mm 2 mps 711 mmHg 63%
    09:00 +10°C° 0 mm 1 mps 711 mmHg 60%
    10:00 +12°C° 0 mm 1 mps 711 mmHg 54%
    11:00 +13°C° 0 mm 1 mps 712 mmHg 48%
    12:00 +15°C° 0 mm 1 mps 712 mmHg 42%
    13:00 +16°C° 0 mm 2 mps 711 mmHg 42%
    14:00 +16°C° 0 mm 2 mps 711 mmHg 42%
    15:00 +17°C° 0 mm 3 mps 710 mmHg 42%
    16:00 +15°C° 0 mm 2 mps 710 mmHg 49%
    17:00 +13°C° 0 mm 2 mps 709 mmHg 55%
    18:00 +10°C° 0 mm 2 mps 709 mmHg 62%
    19:00 +9°C° 0 mm 2 mps 709 mmHg 64%
    20:00 +8°C° 0 mm 2 mps 709 mmHg 66%
    21:00 +9°C° 0 mm 1 mps 709 mmHg 68%
    22:00 +8°C° 0 mm 1 mps 709 mmHg 71%
    23:00 +8°C° 0 mm 1 mps 709 mmHg 73%

    27 January, Sunday

    Time Temperature Precipitation Wind Pressure Humidity
    00:00 +8°C° 0 mm 1 mps 709 mmHg 76%
    01:00 +7°C° 0 mm 1 mps 709 mmHg 78%
    02:00 +7°C° 0 mm 1 mps 708 mmHg 81%
    03:00 +7°C° 0 mm 1 mps 708 mmHg 83%
    04:00 +7°C° 0 mm 1 mps 708 mmHg 84%
    05:00 +6°C° 0 mm 1 mps 708 mmHg 85%
    06:00 +6°C° 0 mm 1 mps 707 mmHg 86%
    07:00 +6°C° 0 mm 2 mps 708 mmHg 85%
    08:00 +6°C° 0 mm 2 mps 708 mmHg 83%
    09:00 +7°C° 0 mm 2 mps 708 mmHg 82%
    10:00 +8°C° 0 mm 2 mps 708 mmHg 77%
    11:00 +9°C° 0 mm 3 mps 708 mmHg 71%
    12:00 +10°C° 0 mm 3 mps 708 mmHg 66%
    13:00 +10°C° 0 mm 3 mps 708 mmHg 65%
    14:00 +10°C° 0 mm 3 mps 707 mmHg 65%
    15:00 +10°C° 0 mm 3 mps 707 mmHg 65%
    16:00 +10°C° 0 mm 3 mps 707 mmHg 70%
    17:00 +9°C° 0 mm 2 mps 707 mmHg 75%
    18:00 +8°C° 0 mm 2 mps 707 mmHg 81%
    19:00 +8°C° 0.1 mm 2 mps 707 mmHg 81%
    20:00 +7°C° 0.1 mm 2 mps 707 mmHg 82%
    21:00 +7°C° 0.1 mm 2 mps 707 mmHg 82%
    22:00 +7°C° 0 mm 2 mps 707 mmHg 85%
    23:00 +6°C° 0 mm 2 mps 707 mmHg 88%

    28 January, Monday

    Time Temperature Precipitation Wind Pressure Humidity
    00:00 +5°C° 0 mm 2 mps 707 mmHg 92%
    01:00 +5°C° 0 mm 2 mps 707 mmHg 92%
    02:00 +4°C° 0 mm 2 mps 706 mmHg 93%
    03:00 +4°C° 0 mm 2 mps 706 mmHg 94%
    04:00 +4°C° 0 mm 2 mps 706 mmHg 94%
    05:00 +3°C° 0 mm 2 mps 706 mmHg 94%
    06:00 +3°C° 0 mm 2 mps 706 mmHg 94%
    07:00 +3°C° 0 mm 2 mps 707 mmHg 88%
    08:00 +3°C° 0 mm 3 mps 707 mmHg 83%
    09:00 +3°C° 0 mm 3 mps 708 mmHg 78%
    10:00 +4°C° 0 mm 3 mps 708 mmHg 68%
    11:00 +5°C° 0 mm 4 mps 708 mmHg 58%
    12:00 +6°C° 0 mm 5 mps 708 mmHg 48%
    13:00 +6°C° 0 mm 5 mps 708 mmHg 48%
    14:00 +5°C° 0 mm 6 mps 707 mmHg 48%
    15:00 +5°C° 0 mm 7 mps 707 mmHg 48%
    16:00 +4°C° 0 mm 6 mps 707 mmHg 50%
    17:00 +4°C° 0 mm 4 mps 708 mmHg 53%
    18:00 +3°C° 0 mm 3 mps 708 mmHg 55%
    19:00 +3°C° 0 mm 3 mps 708 mmHg 57%
    20:00 +3°C° 0 mm 2 mps 709 mmHg 59%
    21:00 +3°C° 0 mm 2 mps 709 mmHg 60%
    22:00 +2°C° 0 mm 2 mps 710 mmHg 62%
    23:00 +2°C° 0 mm 2 mps 710 mmHg 64%
    Show more